Regional Weather Roundup
Issued by NWS Charleston, SC

Current Version | Previous Version | Graphics & Text | Print | Product List | Glossary On
Versions: 1 2 3 4 5 6 7 8 9 10 11 12 13 14 15 16 17 18 19 20 21 22 23 24 25 26 27 28 29 30 31 32 33 34 35 36 37 38 39 40 41 42 43 44 45 46 47 48 49 50
000 ASUS42 KCHS 010626 RWRCHS REGIONAL WEATHER ROUNDUP NATIONAL WEATHER SERVICE CHARLESTON SC 100 AM EST SUN FEB 01 2015 NOTE: "FAIR" INDICATES FEW OR NO CLOUDS BELOW 12,000 FEET WITH NO SIGNIFICANT WEATHER AND/OR OBSTRUCTIONS TO VISIBILITY. NOT ALL STATIONS ARE QUALITY CONTROLLED BY THE NATIONAL WEATHER SERVICE. USE DATA WITH CAUTION...ESPECIALLY DEWPOINT OBSERVATIONS. SCZ027-030-031-034>040-042>050-010700- ...SOUTHEAST SOUTH CAROLINA... CITY SKY/WX TMP DP RH WIND PRES REMARKS N CHARLESTON MOCLDY 39 30 70 CALM 30.33S 6HR MIN TEMP: 38; 6HR MAX TEMP: 43; WATERFRONT PRK N/A 45 N/A N/A SW3 N/A MOUNT PLEASANT FAIR 34 32 93 CALM 30.32F PINOPOLIS N/A 43 28 56 VRB3 30.25R MONCKS CORNER FAIR 36 30 80 CALM 30.32F SUMMERVILLE NOT AVBL BEAUFORT MCAS MOCLDY 39 34 82 CALM 30.32F 6HR MIN TEMP: 39; 6HR MAX TEMP: 46; BEAUFORT ARPT FAIR 37 34 87 CALM 30.31F HILTON HEAD IS PTCLDY 39 34 81 CALM 30.32F WALTERBORO CLOUDY 37 32 81 CALM 30.33F ALLENDALE MOCLDY 39 30 70 CALM 30.30F ...SOUTHERN MIDLANDS AND PEE DEE... CITY SKY/WX TMP DP RH WIND PRES REMARKS GEORGETOWN NOT AVBL KINGSTREE NOT AVBL ORANGEBURG CLOUDY 40 25 55 CALM 30.31F 6HR MIN TEMP: 37; 6HR MAX TEMP: 43; BARNWELL FAIR 41 27 56 CALM 30.31S AIKEN FAIR 43 27 52 S3 30.32F MANNING FAIR 43 30 61 CALM 30.32S COLUMBIA CLOUDY 42 27 55 CALM 30.29F 6HR MIN TEMP: 36; 6HR MAX TEMP: 49; SUMTER CLOUDY 39 24 53 S5 30.29S WCI 36 6HR MIN TEMP: 34; 6HR MAX TEMP: 43; FLORENCE CLOUDY 37 25 61 SW8 30.30F WCI 31 6HR MIN TEMP: 30; 6HR MAX TEMP: 41; MYRTLE BEACH CLEAR 36 27 69 SW5 30.34F WCI 32 N MYRTLE BEACH CLEAR 33 30 88 CALM 30.31F 6HR MIN TEMP: 31; 6HR MAX TEMP: 42; $$ GAZ063-065-086>088-099>101-113>116-118-119-134>141-150-010700- ...SOUTHEAST GEORGIA... CITY SKY/WX TMP DP RH WIND PRES REMARKS SAVANNAH ARPT PTCLDY 42 33 70 CALM 30.32F 6HR MIN TEMP: 41; 6HR MAX TEMP: 44; HUNTER AAF PTCLDY 39 35 86 CALM 30.29F 6HR MIN TEMP: 38; 6HR MAX TEMP: 43; FORT STEWART PTCLDY 35 31 85 CALM 30.29F 6HR MIN TEMP: 35; 6HR MAX TEMP: 44; STATESBORO MOCLDY 34 32 91 CALM 30.30F SYLVANIA MOCLDY 38 33 84 CALM 30.31F CLAXTON FAIR 36 32 87 CALM 30.31F ...CSRA...CENTRAL AND FAR SOUTHEAST GEORGIA... CITY SKY/WX TMP DP RH WIND PRES REMARKS THOMSON CLOUDY 46 30 52 S3 30.33F AUGUSTA-BUSH CLOUDY 44 20 38 S3 30.31S 6HR MIN TEMP: 41; 6HR MAX TEMP: 48; AUGUSTA-DANIEL CLOUDY 46 21 37 S5 30.30F SWAINSBORO FAIR 43 27 52 SE3 30.29F VIDALIA PTCLDY 39 34 81 CALM 30.30F EASTMAN FAIR 35 33 92 CALM 30.31F HAZLEHURST FAIR 43 36 78 CALM 30.28S ALMA CLEAR 41 34 76 CALM 30.29F 6HR MIN TEMP: 39; 6HR MAX TEMP: 50; WAYCROSS CLEAR 44 40 85 CALM 30.28F JESUP FAIR 36 36 100 CALM 30.29F BAXLEY FAIR 41 34 75 CALM 30.29S BRUNSWICK CLEAR 37 36 93 CALM 30.30F SAINT SIMONS CLEAR 48 42 80 E6 30.30F 6HR MIN TEMP: 42; 6HR MAX TEMP: 48; $$ SCZ027-028-034-036>038-045-046-048>050-GAZ119-141-010700- ...LAKE AND SUPPLEMENTAL COASTAL OBSERVATIONS... STATION/POSITION TIME TEMP WIND PRES WAVE SWELL AIR SEA DIR/SP/G HT/PER HT/PER/DIR (UTC) (F) (DEG/KT/KT) (MB) (FT/S) (FT/S/D) UPR LAKE MARION NOT AVBL WINYAH BAY NOT AVBL LAKE MURRAY 0500 48 220/ 8/ 10 1025.4S ACE BASIN NERRS NOT AVBL FORT PULASKI 0600 49 51 120/ 3/ 3 1026.7F SAPELO ISLAND 0500 37 70/ 4 1026.0F $$ ANZ835-935-AMZ111-154-330-350-352-354-370-450-454-472-010700- ...C-MAN AND BUOY OBSERVATIONS... STATION/POSITION TIME TEMP WIND PRES WAVE SWELL AIR SEA DIR/SP/G HT/PER HT/PER/DIR (UTC) (F) (DEG/KT/KT) (MB) (FT/S) (FT/S/D) BUOY 41004 0550 54 69 160/ 4/ 6 1026.6F 5/10 5/10 BUOY 41008 0550 54 53 90/ 8/ 10 1026.1F 3/ 9 3/ 90/ 9 FOLLY BEACH CMAN 0600 50 180/ 6/ 6 1027.1F CAPERS NEARSHORE 0500 49 210/ 8/ 8 N/A FRIPP NEARSHORE NOT AVBL STATION/POSITION TIME TEMP WIND PRES WAVE SWELL AIR SEA DIR/SP/G HT/PER HT/PER/DIR (UTC) (F) (DEG/KT/KT) (MB) (FT/S) (FT/S/D) 5E ST. MARYS GA 0521 56 N/A 3/10 FRYING PAN BUOY 0550 50 63 260/ 2/ 6 1027.8F 2/11 2/ 60/11 BUOY 41025 0550 47 71 290/ 12/ 16 1025.9F 7/12 7/ 60/12 CAPE LOOKOUT NC 0600 45 250/ 5/ 6 1026.1F BUOY 41002 0550 56 70 360/ 10/ 16 1026.4F 10/11 10/ 10/11 BUOY 41010 0520 63 73 60/ 12/ 14 1025.9F ST AUGUSTINE FL 0600 53 340/ 4/ 5 1025.4F $$

USA.gov is the U.S. government's official web portal to all federal, state and local government web resources and services.